SCP
0 0 0 0 0 0 0 0 0 0 0 0 0 0 0 0 0 0 0 0 0 0 0 0 0 0 0 0 0 0 0 0 0 0 0 0 0 0 0 0 0 0 0 0
0 0 0 0 0 0 0 0 0 0 0 0 0 0 0 0 0 0 0 0 0 0 0 0 0 0 0 0 0 0 0 0 0 0 0 0 0 0 0 0 0 0 0 0
0 0 0 0 0 0 0 0 0 0 0 0 0 0 0 0 0 0 0 0 0 0 0 0 0 0 0 0 0 0 0 0 0 0 0 0 0 0 0 0 0 0 0 0
0 0 0 0 0 0 0 0 0 0 0 0 0 0 0 0 0 0 0 0 0 0 0 0 0 0 0 0 0 0 0 0 0 0 0 0 0 0 0 0 0 0 0 0
0 0 0 0 0 0 0 0 0 0 0 0 0 0 -0 -0 -0 0 0 0 0 0 0 0 0 0 0 0 0 0 0 0 0 0 0 0 0 0 0 0 0 0 0 0
0 0 0 0 0 0 0 0 0 0 0 0 0 0 -0 -0 0 0 0 0 0 0 0 0 0 0 0 0 0 0 0 0 0 0 0 0 0 0 0 0 0 0 0 0
0 0 0 0 0 0 0 0 0 0 0 0 -0 0 -0 0 0 0 0 0 0 0 0 0 0 0 0 0 0 0 0 0 0 0 0 0 0 0 0 0 0 0 0 0
0 0 0 0 0 0 0 0 0 0 0 0 0 0 0 -0 -0 0 0 0 0 0 0 0 0 0 0 0 0 0 0 0 0 0 0 0 0 0 0 0 0 0 0 0
0 0 0 0 0 0 0 0 0 0 0 0 0 0 0 -0 0 0 0 0 0 0 0 0 0 0 0 0 0 0 0 0 0 0 0 0 0 0 0 0 0 0 0 0
0 0 0 0 0 0 0 0 0 0 0 0 0 0 0 0 0 0 0 0 0 0 0 0 0 0 0 0 0 0 0 0 0 0 0 0 0 0 0 0 0 0 0 0
0 0 0 0 0 0 0 0 0 0 0 0 0 0 -0 0 0 0 0 0 0 0 0 0 0 0 0 0 0 0 0 0 0 0 0 0 0 0 0 0 0 0 0 0
0 0 0 0 0 0 0 0 0 0 0 0 0 0 0 0 0 0 0 0 0 0 0 0 0 0 0 0 0 0 0 0 0 0 0 0 0 0 0 0 0 0 0 0
0 0 0 0 0 0 0 0 0 0 0 0 0 0 0 0 0 0 0 0 0 0 0 0 0 0 0 0 0 0 0 0 0 0 0 0 0 0 0 0 0 0 0 0
0 0 0 0 0 0 0 0 0 0 0 0 0 0 0 0 0 0 -0 0 0 0 0 0 0 0 0 0 0 0 0 0 0 0 0 0 0 0 0 0 0 0 0 0
0 0 0 0 0 0 0 0 0 0 0 0 0 0 0 0 0 0 0 0 0 0 0 0 0 0 0 0 0 0 0 0 0 0 0 0 0 0 0 0 0 0 0 0
0 0 0 0 0 0 0 0 0 0 0 0 0 0 0 0 0 0 0 0 0 0 0 0 0 0 0 0 0 0 0 0 0 0 0 0 0 0 0 0 0 0 0 0
0 0 0 0 0 0 0 0 0 0 0 0 0 0 0 0 0 0 0 0 0 0 0 0 0 0 0 0 0 0 0 0 0 0 0 0 0 0 0 0 0 0 0 0
0 0 0 0 0 0 0 0 0 0 0 0 0 0 0 0 0 0 0 0 0 0 0 0 0 0 0 0 0 0 0 0 0 0 0 0 0 0 0 0 0 0 0 0
0 0 0 0 0 0 0 0 0 0 0 0 0 0 0 0 0 0 0 0 0 0 0 0 0 0 0 0 0 0 0 0 0 0 0 0 0 0 0 0 0 0 0 0
0 0 0 0 0 0 0 0 0 0 0 0 0 0 0 0 0 0 0 0 0 0 0 0 0 0 0 0 0 0 0 0 0 0 0 0 0 0 0 0 0 0 0 0
0 0 0 0 0 0 0 0 0 0 0 0 0 0 0 0 0 0 0 0 0 0 0 0 0 0 0 0 0 0 0 0 0 0 0 0 0 0 0 0 0 0 0 0
0 0 0 0 0 0 0 0 0 0 0 0 0 0 0 0 0 0 0 0 0 0 0 0 0 0 0 0 0 0 0 0 0 0 0 0 0 0 0 0 0 0 0 0
0 0 0 0 0 0 0 0 0 0 0 0 0 0 0 0 0 0 0 0 0 0 0 0 0 0 0 0 0 0 0 0 0 0 0 0 0 0 0 0 0 0 0 0
0 0 0 0 0 0 0 0 0 0 0 0 0 0 0 0 0 0 0 0 0 0 0 0 0 0 0 0 0 0 0 0 0 0 0 0 0 0 0 0 0 0 0 0
0 0 0 0 0 0 0 0 0 0 0 0 0 0 0 0 0 0 0 0 0 0 0 0 0 0 0 0 0 0 0 0 0 0 0 0 0 0 0 0 0 0 0 0
0 0 0 0 0 0 0 0 0 0 0 0 0 0 0 0 0 0 0 0 0 0 0 0 0 0 0 0 0 0 0 0 0 0 0 0 0 0 0 0 0 0 0 0
Wind_Speed_500mb
33 14 33 33 24 20 23 16 29 11 16 16 24 33 23 43 35 34 36 32 30 30 35 40 45 49 53 57 58 57 57 62 61 62 61 55 52 48 46 44 42 41 40 36
15 36 34 26 29 24 22 16 22 15 11 3 15 28 28 33 32 47 51 50 45 38 36 41 48 51 64 66 63 62 66 63 67 67 66 64 59 56 51 51 50 49 48 41
32 29 37 33 30 31 31 20 12 13 8 5 9 17 26 26 48 52 59 61 58 49 45 50 56 59 70 74 74 73 74 71 71 71 70 68 63 59 60 59 58 59 54 48
32 31 44 34 37 29 34 18 13 11 9 8 12 11 16 17 34 39 57 62 66 69 64 52 62 65 70 77 77 78 80 78 77 76 76 76 76 76 73 67 63 59 53 52
29 48 48 48 42 33 9 25 22 10 5 4 7 6 8 18 28 29 43 71 76 78 74 77 64 71 70 68 81 86 83 82 84 85 84 82 81 78 72 69 68 65 58 53
30 26 34 36 31 24 16 14 14 9 1 11 21 13 11 18 27 16 31 47 53 67 81 81 81 74 72 69 74 84 86 87 88 90 88 89 88 84 81 79 75 70 62 57
13 29 29 58 37 16 17 19 6 11 11 22 17 20 27 23 21 12 19 37 35 41 64 80 80 74 77 78 74 79 87 91 94 94 93 94 94 90 88 84 78 73 68 65
20 22 33 24 37 18 43 36 9 16 9 10 1 13 10 38 58 46 44 41 39 27 27 68 74 74 78 82 78 78 83 90 96 98 100 96 94 95 92 90 86 83 81 75
27 10 17 27 33 28 18 24 11 7 3 5 11 10 13 17 16 22 29 30 29 30 33 27 56 59 65 76 81 81 83 87 93 98 98 98 98 98 100 96 91 88 88 83
19 10 9 2 19 14 19 14 8 4 10 8 9 11 9 10 17 12 6 14 21 14 17 23 33 42 53 55 64 72 80 86 89 93 95 97 99 98 98 96 96 94 94 92
26 10 8 10 12 28 11 24 12 10 7 8 4 9 9 11 9 14 15 12 9 6 6 14 20 27 36 44 56 63 69 78 85 89 92 97 98 99 96 96 96 96 94 95
25 12 16 22 9 4 16 25 15 12 10 4 8 10 4 18 14 23 27 23 17 17 16 17 17 3 24 26 37 53 61 63 66 79 85 87 93 95 95 97 94 92 92 91
22 12 15 10 6 5 15 23 35 14 5 14 10 9 8 14 10 15 26 14 9 9 16 18 20 22 18 14 14 24 40 51 56 61 71 78 83 89 92 93 94 90 94 95
40 11 21 35 46 22 25 36 35 33 9 10 26 5 6 15 15 21 25 17 8 20 22 14 16 20 24 26 26 25 25 27 37 47 57 69 72 73 80 80 78 81 90 93
16 10 17 1 30 27 43 45 39 36 47 19 46 38 27 15 15 15 13 12 27 34 32 24 23 24 27 33 34 38 33 30 27 34 42 50 60 70 72 69 71 75 77 77
11 5 10 7 28 38 38 40 40 41 53 47 36 21 15 33 5 6 6 27 38 39 33 27 27 34 39 36 40 40 39 35 32 30 33 35 42 51 57 58 65 67 68 68
28 12 15 9 16 20 17 46 52 51 37 58 36 42 8 9 6 7 8 24 33 37 31 34 37 32 43 42 46 47 40 35 32 31 30 31 34 36 36 39 46 51 59 62
26 16 5 10 15 11 13 39 52 62 49 52 42 14 10 11 13 19 24 32 36 46 51 47 42 41 41 45 48 44 36 34 30 28 29 29 31 34 39 43 46 50 55 62
21 13 9 11 15 6 4 11 55 42 44 39 52 40 34 38 33 35 42 34 35 32 28 32 32 33 30 33 32 31 26 26 28 27 25 28 30 33 35 39 41 44 45 48
24 8 8 8 11 20 5 19 38 14 28 31 44 29 33 36 13 8 20 12 7 8 9 11 17 21 23 23 20 19 15 17 18 19 21 24 26 29 30 31 29 29 33 36
13 7 17 16 7 12 9 14 49 19 14 22 58 52 35 12 16 26 19 12 15 12 10 7 7 8 10 12 14 13 12 12 12 15 18 20 23 26 26 29 26 27 36 40
18 18 12 7 6 14 22 10 24 8 4 12 39 29 29 35 28 22 12 9 7 8 8 8 9 12 15 17 17 15 13 11 10 11 13 17 21 23 26 27 28 30 32 44
8 11 15 15 10 4 64 24 15 23 25 18 35 26 32 37 32 27 26 21 21 20 21 21 18 17 17 18 18 17 17 16 18 19 17 16 19 22 25 27 29 31 34 40
10 4 8 10 4 9 39 19 22 23 24 23 26 33 35 43 39 36 31 27 25 24 23 22 19 17 17 19 20 22 23 25 25 24 23 21 20 20 24 26 28 32 36 39
4 5 10 3 7 5 20 26 30 28 28 29 30 32 35 37 36 33 34 30 26 24 23 20 17 17 16 16 15 16 17 19 23 25 26 26 26 24 24 25 28 30 32 36
19 12 6 4 25 17 9 24 31 35 35 31 34 37 33 31 37 37 35 29 25 21 19 14 12 11 10 9 11 12 14 16 18 21 21 20 20 21 21 22 25 27 29 34
Wind_Direction_500mb
186 183 208 202 223 246 228 212 218 207 226 186 224 238 227 239 238 239 242 237 244 240 221 236 222 228 207 217 221 221 215 214 213 210 212 220 223 225 225 230 232 236 240 234
174 217 204 213 208 242 250 229 216 234 55 236 246 244 244 248 245 251 257 252 235 233 225 222 223 220 213 215 220 217 221 215 215 216 220 226 229 232 234 233 233 237 243 241
197 213 194 207 223 205 230 214 217 233 122 316 1 275 262 254 250 245 245 245 245 232 221 217 220 223 213 214 216 217 224 221 220 221 221 224 227 231 232 231 234 237 239 241
216 189 185 202 222 198 215 182 216 116 135 224 168 279 238 241 239 239 241 243 242 234 231 221 220 223 222 220 219 221 225 226 224 225 227 228 229 229 233 235 240 240 238 243
197 184 188 199 203 197 255 195 206 167 177 56 210 265 258 228 247 242 230 231 232 233 229 223 221 227 231 226 223 225 226 227 229 230 231 232 233 237 241 241 241 243 242 239
211 192 186 198 196 183 136 87 60 62 330 241 211 202 223 235 239 233 245 244 232 235 228 227 224 225 227 232 229 227 228 229 231 233 234 234 236 237 238 241 241 243 242 238
176 199 182 179 185 142 147 152 145 201 217 247 170 204 241 273 269 250 290 284 264 243 234 227 223 223 224 227 230 230 228 231 232 235 237 237 238 239 242 245 244 242 243 239
180 189 163 176 188 170 182 176 158 198 204 210 272 232 243 218 246 263 265 261 265 253 248 227 225 226 229 233 233 233 233 235 234 236 240 241 241 241 243 246 245 246 248 252
172 150 185 181 155 155 175 203 195 100 122 61 198 255 301 230 250 247 255 263 252 254 253 234 225 225 233 236 239 242 241 240 238 239 240 242 244 243 244 246 245 248 253 253
172 118 231 88 129 182 184 140 177 258 159 224 240 226 227 195 228 240 224 233 238 229 237 239 245 240 235 238 244 246 247 247 246 242 243 245 247 248 248 247 247 247 250 254
149 130 205 162 195 164 178 184 210 174 201 186 150 246 210 147 136 119 89 84 85 130 191 226 229 243 249 241 240 248 249 249 248 247 246 246 247 248 248 248 249 249 248 251
175 161 156 189 359 305 203 182 197 188 209 194 125 273 61 137 136 137 141 132 88 80 60 61 51 276 245 246 243 247 248 248 251 250 250 249 249 248 247 250 251 248 245 244
183 156 131 119 140 344 195 195 202 204 86 202 156 231 208 149 143 161 150 145 113 34 17 15 23 28 26 4 314 270 256 255 252 245 246 250 250 250 251 252 253 251 248 246
198 160 183 196 197 145 192 193 200 198 191 194 220 238 190 176 184 176 192 200 329 320 337 341 337 348 356 359 352 330 305 277 261 257 251 245 245 246 249 249 244 243 244 249
217 148 176 305 166 173 191 183 192 201 225 198 235 219 213 187 171 174 190 258 302 316 325 320 311 313 325 330 329 331 316 298 278 268 258 254 249 248 243 240 243 247 250 253
180 156 105 329 169 174 184 194 195 206 220 222 239 257 180 220 196 153 324 307 304 305 311 304 312 310 317 316 318 315 318 307 289 276 270 259 256 253 252 250 249 249 252 256
175 137 148 177 137 125 178 196 195 213 215 218 221 230 143 139 163 309 280 269 278 291 294 302 310 310 306 306 309 307 305 298 291 279 266 264 263 262 260 258 256 253 250 251
164 127 83 144 114 199 225 191 205 210 216 226 240 211 199 202 241 253 262 277 281 281 288 290 288 290 292 294 295 296 293 288 283 275 271 267 264 262 261 257 254 253 254 254
183 140 111 154 187 236 232 204 196 191 233 222 230 235 235 252 270 267 267 263 265 275 270 276 286 296 300 299 290 289 290 287 284 280 277 274 272 272 272 271 270 267 261 258
162 162 116 164 160 207 210 183 171 147 262 209 216 213 218 221 221 224 204 182 205 275 274 283 297 303 306 313 315 300 291 289 286 276 272 275 276 277 281 279 280 281 280 270
150 150 178 183 192 275 176 152 136 151 242 205 203 212 199 173 201 171 182 234 270 255 259 289 296 336 2 9 7 352 343 331 314 288 271 270 278 284 287 287 284 280 279 276
160 156 177 169 150 258 169 116 166 185 107 142 156 161 142 151 147 156 175 190 192 177 156 129 106 78 60 52 43 36 24 1 326 303 288 283 279 277 276 276 276 274 273 272
161 191 158 181 190 219 171 186 167 148 141 130 137 147 163 163 163 166 156 141 125 118 113 103 90 71 56 44 34 24 22 8 348 329 313 291 275 273 273 270 270 274 275 275
26 10 106 88 293 119 187 156 143 144 146 145 147 150 163 154 155 149 148 137 125 114 105 90 83 69 53 36 22 11 2 349 338 328 317 305 291 280 272 268 261 260 267 273
350 46 134 56 24 73 202 195 175 150 150 155 153 157 156 152 149 151 144 137 129 119 107 96 80 64 47 31 10 359 351 342 339 332 324 317 312 304 291 283 276 264 259 264
358 16 37 101 359 315 318 175 169 164 161 160 164 156 155 162 157 156 145 138 131 125 116 109 90 71 55 31 11 358 351 344 342 341 335 331 326 321 311 301 293 288 283 280
Wind_Speed_850mb
33 14 33 33 24 20 23 16 29 11 16 16 24 33 23 43 35 34 36 32 30 30 35 40 45 49 53 57 58 57 57 62 61 62 61 55 52 48 46 44 42 41 40 36
15 36 34 26 29 24 22 16 22 15 11 3 15 28 28 33 32 47 51 50 45 38 36 41 48 51 64 66 63 62 66 63 67 67 66 64 59 56 51 51 50 49 48 41
32 29 37 33 30 31 31 20 12 13 8 5 9 17 26 26 48 52 59 61 58 49 45 50 56 59 70 74 74 73 74 71 71 71 70 68 63 59 60 59 58 59 54 48
32 31 44 34 37 29 34 18 13 11 9 8 12 11 16 17 34 39 57 62 66 69 64 52 62 65 70 77 77 78 80 78 77 76 76 76 76 76 73 67 63 59 53 52
29 48 48 48 42 33 9 25 22 10 5 4 7 6 8 18 28 29 43 71 76 78 74 77 64 71 70 68 81 86 83 82 84 85 84 82 81 78 72 69 68 65 58 53
30 26 34 36 31 24 16 14 14 9 1 11 21 13 11 18 27 16 31 47 53 67 81 81 81 74 72 69 74 84 86 87 88 90 88 89 88 84 81 79 75 70 62 57
13 29 29 58 37 16 17 19 6 11 11 22 17 20 27 23 21 12 19 37 35 41 64 80 80 74 77 78 74 79 87 91 94 94 93 94 94 90 88 84 78 73 68 65
20 22 33 24 37 18 43 36 9 16 9 10 1 13 10 38 58 46 44 41 39 27 27 68 74 74 78 82 78 78 83 90 96 98 100 96 94 95 92 90 86 83 81 75
27 10 17 27 33 28 18 24 11 7 3 5 11 10 13 17 16 22 29 30 29 30 33 27 56 59 65 76 81 81 83 87 93 98 98 98 98 98 100 96 91 88 88 83
19 10 9 2 19 14 19 14 8 4 10 8 9 11 9 10 17 12 6 14 21 14 17 23 33 42 53 55 64 72 80 86 89 93 95 97 99 98 98 96 96 94 94 92
26 10 8 10 12 28 11 24 12 10 7 8 4 9 9 11 9 14 15 12 9 6 6 14 20 27 36 44 56 63 69 78 85 89 92 97 98 99 96 96 96 96 94 95
25 12 16 22 9 4 16 25 15 12 10 4 8 10 4 18 14 23 27 23 17 17 16 17 17 3 24 26 37 53 61 63 66 79 85 87 93 95 95 97 94 92 92 91
22 12 15 10 6 5 15 23 35 14 5 14 10 9 8 14 10 15 26 14 9 9 16 18 20 22 18 14 14 24 40 51 56 61 71 78 83 89 92 93 94 90 94 95
40 11 21 35 46 22 25 36 35 33 9 10 26 5 6 15 15 21 25 17 8 20 22 14 16 20 24 26 26 25 25 27 37 47 57 69 72 73 80 80 78 81 90 93
16 10 17 1 30 27 43 45 39 36 47 19 46 38 27 15 15 15 13 12 27 34 32 24 23 24 27 33 34 38 33 30 27 34 42 50 60 70 72 69 71 75 77 77
11 5 10 7 28 38 38 40 40 41 53 47 36 21 15 33 5 6 6 27 38 39 33 27 27 34 39 36 40 40 39 35 32 30 33 35 42 51 57 58 65 67 68 68
28 12 15 9 16 20 17 46 52 51 37 58 36 42 8 9 6 7 8 24 33 37 31 34 37 32 43 42 46 47 40 35 32 31 30 31 34 36 36 39 46 51 59 62
26 16 5 10 15 11 13 39 52 62 49 52 42 14 10 11 13 19 24 32 36 46 51 47 42 41 41 45 48 44 36 34 30 28 29 29 31 34 39 43 46 50 55 62
21 13 9 11 15 6 4 11 55 42 44 39 52 40 34 38 33 35 42 34 35 32 28 32 32 33 30 33 32 31 26 26 28 27 25 28 30 33 35 39 41 44 45 48
24 8 8 8 11 20 5 19 38 14 28 31 44 29 33 36 13 8 20 12 7 8 9 11 17 21 23 23 20 19 15 17 18 19 21 24 26 29 30 31 29 29 33 36
13 7 17 16 7 12 9 14 49 19 14 22 58 52 35 12 16 26 19 12 15 12 10 7 7 8 10 12 14 13 12 12 12 15 18 20 23 26 26 29 26 27 36 40
18 18 12 7 6 14 22 10 24 8 4 12 39 29 29 35 28 22 12 9 7 8 8 8 9 12 15 17 17 15 13 11 10 11 13 17 21 23 26 27 28 30 32 44
8 11 15 15 10 4 64 24 15 23 25 18 35 26 32 37 32 27 26 21 21 20 21 21 18 17 17 18 18 17 17 16 18 19 17 16 19 22 25 27 29 31 34 40
10 4 8 10 4 9 39 19 22 23 24 23 26 33 35 43 39 36 31 27 25 24 23 22 19 17 17 19 20 22 23 25 25 24 23 21 20 20 24 26 28 32 36 39
4 5 10 3 7 5 20 26 30 28 28 29 30 32 35 37 36 33 34 30 26 24 23 20 17 17 16 16 15 16 17 19 23 25 26 26 26 24 24 25 28 30 32 36
19 12 6 4 25 17 9 24 31 35 35 31 34 37 33 31 37 37 35 29 25 21 19 14 12 11 10 9 11 12 14 16 18 21 21 20 20 21 21 22 25 27 29 34
Wind_Direction_850mb
186 183 208 202 223 246 228 212 218 207 226 186 224 238 227 239 238 239 242 237 244 240 221 236 222 228 207 217 221 221 215 214 213 210 212 220 223 225 225 230 232 236 240 234
174 217 204 213 208 242 250 229 216 234 55 236 246 244 244 248 245 251 257 252 235 233 225 222 223 220 213 215 220 217 221 215 215 216 220 226 229 232 234 233 233 237 243 241
197 213 194 207 223 205 230 214 217 233 122 316 1 275 262 254 250 245 245 245 245 232 221 217 220 223 213 214 216 217 224 221 220 221 221 224 227 231 232 231 234 237 239 241
216 189 185 202 222 198 215 182 216 116 135 224 168 279 238 241 239 239 241 243 242 234 231 221 220 223 222 220 219 221 225 226 224 225 227 228 229 229 233 235 240 240 238 243
197 184 188 199 203 197 255 195 206 167 177 56 210 265 258 228 247 242 230 231 232 233 229 223 221 227 231 226 223 225 226 227 229 230 231 232 233 237 241 241 241 243 242 239
211 192 186 198 196 183 136 87 60 62 330 241 211 202 223 235 239 233 245 244 232 235 228 227 224 225 227 232 229 227 228 229 231 233 234 234 236 237 238 241 241 243 242 238
176 199 182 179 185 142 147 152 145 201 217 247 170 204 241 273 269 250 290 284 264 243 234 227 223 223 224 227 230 230 228 231 232 235 237 237 238 239 242 245 244 242 243 239
180 189 163 176 188 170 182 176 158 198 204 210 272 232 243 218 246 263 265 261 265 253 248 227 225 226 229 233 233 233 233 235 234 236 240 241 241 241 243 246 245 246 248 252
172 150 185 181 155 155 175 203 195 100 122 61 198 255 301 230 250 247 255 263 252 254 253 234 225 225 233 236 239 242 241 240 238 239 240 242 244 243 244 246 245 248 253 253
172 118 231 88 129 182 184 140 177 258 159 224 240 226 227 195 228 240 224 233 238 229 237 239 245 240 235 238 244 246 247 247 246 242 243 245 247 248 248 247 247 247 250 254
149 130 205 162 195 164 178 184 210 174 201 186 150 246 210 147 136 119 89 84 85 130 191 226 229 243 249 241 240 248 249 249 248 247 246 246 247 248 248 248 249 249 248 251
175 161 156 189 359 305 203 182 197 188 209 194 125 273 61 137 136 137 141 132 88 80 60 61 51 276 245 246 243 247 248 248 251 250 250 249 249 248 247 250 251 248 245 244
183 156 131 119 140 344 195 195 202 204 86 202 156 231 208 149 143 161 150 145 113 34 17 15 23 28 26 4 314 270 256 255 252 245 246 250 250 250 251 252 253 251 248 246
198 160 183 196 197 145 192 193 200 198 191 194 220 238 190 176 184 176 192 200 329 320 337 341 337 348 356 359 352 330 305 277 261 257 251 245 245 246 249 249 244 243 244 249
217 148 176 305 166 173 191 183 192 201 225 198 235 219 213 187 171 174 190 258 302 316 325 320 311 313 325 330 329 331 316 298 278 268 258 254 249 248 243 240 243 247 250 253
180 156 105 329 169 174 184 194 195 206 220 222 239 257 180 220 196 153 324 307 304 305 311 304 312 310 317 316 318 315 318 307 289 276 270 259 256 253 252 250 249 249 252 256
175 137 148 177 137 125 178 196 195 213 215 218 221 230 143 139 163 309 280 269 278 291 294 302 310 310 306 306 309 307 305 298 291 279 266 264 263 262 260 258 256 253 250 251
164 127 83 144 114 199 225 191 205 210 216 226 240 211 199 202 241 253 262 277 281 281 288 290 288 290 292 294 295 296 293 288 283 275 271 267 264 262 261 257 254 253 254 254
183 140 111 154 187 236 232 204 196 191 233 222 230 235 235 252 270 267 267 263 265 275 270 276 286 296 300 299 290 289 290 287 284 280 277 274 272 272 272 271 270 267 261 258
162 162 116 164 160 207 210 183 171 147 262 209 216 213 218 221 221 224 204 182 205 275 274 283 297 303 306 313 315 300 291 289 286 276 272 275 276 277 281 279 280 281 280 270
150 150 178 183 192 275 176 152 136 151 242 205 203 212 199 173 201 171 182 234 270 255 259 289 296 336 2 9 7 352 343 331 314 288 271 270 278 284 287 287 284 280 279 276
160 156 177 169 150 258 169 116 166 185 107 142 156 161 142 151 147 156 175 190 192 177 156 129 106 78 60 52 43 36 24 1 326 303 288 283 279 277 276 276 276 274 273 272
161 191 158 181 190 219 171 186 167 148 141 130 137 147 163 163 163 166 156 141 125 118 113 103 90 71 56 44 34 24 22 8 348 329 313 291 275 273 273 270 270 274 275 275
26 10 106 88 293 119 187 156 143 144 146 145 147 150 163 154 155 149 148 137 125 114 105 90 83 69 53 36 22 11 2 349 338 328 317 305 291 280 272 268 261 260 267 273
350 46 134 56 24 73 202 195 175 150 150 155 153 157 156 152 149 151 144 137 129 119 107 96 80 64 47 31 10 359 351 342 339 332 324 317 312 304 291 283 276 264 259 264
358 16 37 101 359 315 318 175 169 164 161 160 164 156 155 162 157 156 145 138 131 125 116 109 90 71 55 31 11 358 351 344 342 341 335 331 326 321 311 301 293 288 283 280